Location: Torrance
(33.8360°N, 118.3400°W)
Time: 14:15:27
(UTC-08:00)

LightSail 2 - Visible Passes

Search period start: 26 February 2020 00:00
Search period end: 07 March 2020 00:00
Orbit: 698 x 723 km, 24.0° (Epoch: 25 February)

Date Brightness Start Highest point End Pass type
(mag) Time Alt. Az. Time Alt. Az. Time Alt. Az.
26 Feb 7.7 03:54:58 12° SSE 03:54:58 12° SSE 03:55:25 10° SSE visible
27 Feb 7.4 04:38:50 11° S 04:38:50 11° S 04:39:32 10° S visible
03 Mar 7.3 19:14:42 10° S 19:16:06 11° SSE 19:16:26 11° SSE visible
04 Mar 7.2 19:58:36 10° SSW 20:00:17 16° SSW 20:00:17 16° SSW visible
05 Mar 7.0 19:00:23 10° SSW 19:03:27 16° SSE 19:05:11 14° SE visible
06 Mar 6.6 19:45:32 10° SW 19:48:58 23° S 19:48:58 23° S visible
